[[{"header":{"parameterUnit":"m.s-1","parameterCategory":1,"la1":30.2991,"la2":30.254,"lo1":-89.0895,"lo2":-89.0444,"dy":0.0017,"dx":0.0017,"nx":28,"ny":28,"refTime":"2023-08-13T09:00:00:Z","depth":0,"parameterNumber":2,"parameterNumberName":"U-component_of_WINDS"},"data":[0,0,0,0,0,0,0,0,0,0,0,0,0,0,0,0,0,0,0,0,0,0,0,0,0,0,0,0,0,0,0,0,0,0,0,0,0,0,0,0,0,0,0,0,0,0,0,0,0,0,0,0,0,0,0,0,0,0,3.1444,3.1445,0,3.1489,3.1489,3.149,3.1403,3.14,3.1398,3.1395,3.1439,3.1443,3.1446,0,0,0,0,0,0,0,0,0,0,0,0,0,3.1281,3.1285,3.1444,3.1445,3.1445,3.1488,3.1489,3.149,3.1404,3.14,3.1397,3.1394,3.1438,3.1442,3.1447,0,0,0,0,0,0,0,0,0,0,0,0,0,3.1342,3.1286,3.1444,3.1408,3.1405,3.1488,3.1489,3.149,3.1405,3.14,3.1396,3.1392,3.1436,3.1442,3.1447,3.1568,0,0,3.1465,3.1467,0,0,0,0,0,0,0,0,3.1338,3.1348,3.1412,3.141,3.1407,3.1436,3.1448,3.1516,3.1406,3.1405,3.1395,3.139,3.1441,3.1446,3.1464,3.157,3.1572,3.1465,3.1469,3.1471,3.1473,0,0,0,0,0,0,0,3.1334,3.1345,3.1461,3.1413,3.141,3.1388,3.1392,3.146,3.1446,3.1404,3.1398,3.1405,3.1439,3.1459,3.1464,3.1572,3.1465,3.147,3.1474,3.1476,3.1777,3.1781,0,0,0,0,0,0,3.1335,3.1342,3.146,3.1463,3.1362,3.1394,3.1399,3.1431,3.1445,3.1443,3.1408,3.1401,3.1451,3.1458,3.1466,3.1605,3.1471,3.1477,3.148,3.1772,3.1778,3.1783,0,0,0,0,0,0,3.1332,3.1346,3.1458,3.1401,3.1414,3.1402,3.1439,3.1434,3.1454,3.1448,3.1445,3.1431,3.1448,3.1457,3.1543,3.1606,3.1479,3.1484,3.1767,3.1774,3.178,3.1888,0,0,0,0,0,0,3.1328,3.1346,3.1392,3.1403,3.1417,3.1536,3.1443,3.1438,3.1464,3.1454,3.1469,3.1467,3.1445,3.1534,3.1548,3.1611,3.1489,3.1761,3.177,3.1778,3.1879,3.1897,3.1914,0,0,0,0,0,3.1322,3.1421,3.1395,3.141,3.1475,3.154,3.1548,3.1521,3.147,3.1515,3.1511,3.1467,3.1597,3.1544,3.1559,3.1625,3.1757,3.1767,3.1777,3.1871,3.1894,3.1913,0,0,0,0,0,0,3.1418,3.1422,3.1393,3.1498,3.152,3.1525,3.1582,3.1547,3.1582,3.1572,3.1536,3.1541,3.1632,3.1637,3.1578,3.1741,3.1668,3.1682,3.1734,3.1756,3.1773,3.1769,3.1494,0,0,0,0,0,3.1452,3.1505,3.1505,3.1598,3.161,3.1595,3.1622,3.1599,3.1619,3.1627,3.163,3.1651,3.1696,3.1726,3.1768,3.1879,3.188,3.1932,3.1949,3.1964,3.1975,3.2032,3.2055,3.1816,3.1816,3.1816,0,0,3.1521,3.153,3.1565,3.1617,3.1631,3.1685,3.1602,3.1664,3.1703,3.1637,3.1716,3.1719,3.174,3.1838,3.1881,3.1845,3.2042,3.1977,3.1989,3.1992,3.2045,3.2068,3.2088,3.1823,3.1822,3.1821,0,0,3.1675,3.1688,3.1765,3.1781,3.1802,3.1791,3.181,3.1821,3.182,3.19,3.1851,3.1897,3.1976,3.1992,3.2011,3.217,3.2129,3.2184,3.2276,3.2331,3.235,3.2366,3.2421,3.2441,3.2196,3.2197,3.2197,0,3.1758,3.1839,3.181,3.1874,3.1898,3.184,3.1917,3.1933,3.1968,3.1984,3.1943,3.204,3.2051,3.215,3.2189,3.2207,3.2226,3.2182,3.235,3.2366,3.2381,3.2432,3.2453,3.2203,3.2202,3.2202,3.2201,0,3.1939,3.1996,3.2056,3.209,3.212,3.2191,3.2171,3.2205,3.218,3.2173,3.2254,3.2264,3.2306,3.2328,3.2305,3.2425,3.2401,3.2356,3.2282,3.2411,3.2458,3.2478,3.2212,3.221,3.2208,3.2206,0,0,3.2154,3.2171,3.2193,3.2207,3.2227,3.2269,3.2337,3.2378,3.2406,3.2432,3.2486,3.2554,3.2512,3.2533,3.2511,3.256,3.2682,3.2508,3.2508,3.2538,3.2812,3.2845,3.2868,3.2656,3.266,3.2663,3.281,0,3.2305,3.2422,3.2397,3.2511,3.2561,3.2507,3.2565,3.2583,3.2578,3.262,3.2614,3.2662,3.2604,3.2616,3.2662,3.2658,3.2737,3.2647,3.2705,3.2707,3.2699,3.2894,3.2929,3.3067,3.2829,3.2832,3.2834,0,3.2497,3.2529,3.2648,3.2657,3.2678,3.2731,3.2765,3.2806,3.2824,3.2817,3.2841,3.2808,3.2873,3.28,3.2889,3.2828,3.285,3.2852,3.2856,3.2859,3.2777,3.29,3.3111,3.3131,3.2864,3.2861,3.2859,0,3.2639,3.2712,3.2792,3.2806,3.282,3.2858,3.2865,3.2879,3.2905,3.2935,3.2951,3.2988,3.3008,3.3038,3.3015,3.2965,3.3107,3.3032,3.3101,3.3101,3.3132,3.313,3.3347,3.315,3.315,3.3149,3.3149,0,3.2809,3.2883,3.2856,3.2905,3.2986,3.2956,3.3037,3.3038,3.3051,3.3098,3.3054,3.3099,3.3068,3.311,3.3094,3.3168,3.3178,3.3173,3.3167,3.3176,3.3176,3.3188,3.3177,3.3155,3.3154,3.3152,3.3152,0,3.298,3.2966,3.3049,3.3055,3.3058,3.3117,3.3122,3.3166,3.3158,3.3219,3.3231,3.3218,3.3265,3.3246,3.3297,3.3285,3.338,3.3363,3.3374,3.3368,3.3437,3.343,3.3669,3.3697,3.3484,3.3486,3.3488,0,3.3089,3.3144,3.3156,3.3185,3.3195,3.3242,3.3268,3.3241,3.3269,3.3293,3.3335,3.3378,3.3411,3.3489,3.3483,3.3521,3.3503,3.3584,3.3508,3.3514,3.3501,3.3497,3.3502,3.3598,3.3601,3.3603,3.3605,0,3.3282,3.3271,3.3311,3.3347,3.3379,3.3406,3.343,3.3455,3.3429,3.3463,3.3511,3.3536,3.3587,3.363,3.3664,3.367,3.3632,3.3629,3.3646,3.3654,3.3658,3.3654,3.3413,3.3623,3.3621,3.362,3.3619,3.3618,3.3423,3.347,3.3485,3.3529,3.3544,3.3567,3.3608,3.3605,3.3645,3.3684,3.3666,3.3721,3.3735,3.3776,3.3788,3.3829,3.3797,3.3823,3.3829,3.3836,3.3844,3.3653,3.3835,3.3835,3.3834,3.3834,3.3833,0,3.3612,3.3619,3.3661,3.3694,3.3729,3.3692,3.3715,3.3746,3.3795,3.3813,3.3846,3.39,3.3941,3.3939,3.3976,3.401,3.3994,3.4021,3.4017,3.4018,3.3871,3.3851,3.4033,3.4033,3.4033,3.4033,3.4033,3.4033,3.3714,3.379,3.3781,3.3863,3.3869,3.3923,3.3939,3.3959,3.3972,3.4035,3.4069,3.4067,3.4076,3.4114,3.4149,3.4147,3.4162,3.4195,3.4187,3.4049,3.4029,3.401,3.3991,3.4199,3.42,3.433,3.4331,3.4332]},{"header":{"parameterUnit":"m.s-1","parameterCategory":1,"la1":30.2991,"la2":30.254,"lo1":-89.0895,"lo2":-89.0444,"dy":0.0017,"dx":0.0017,"nx":28,"ny":28,"refTime":"2023-08-13T09:00:00:Z","depth":0,"parameterNumber":3,"parameterNumberName":"V-component_of_WINDS"},"data":[0,0,0,0,0,0,0,0,0,0,0,0,0,0,0,0,0,0,0,0,0,0,0,0,0,0,0,0,0,0,0,0,0,0,0,0,0,0,0,0,0,0,0,0,0,0,0,0,0,0,0,0,0,0,0,0,0,0,3.0284,3.0285,0,3.0365,3.0366,3.0367,3.0355,3.0354,3.0353,3.0351,3.0431,3.0434,3.0437,0,0,0,0,0,0,0,0,0,0,0,0,0,3.0114,3.0118,3.0284,3.0285,3.0286,3.0365,3.0366,3.0367,3.0355,3.0354,3.0352,3.0351,3.043,3.0434,3.0438,0,0,0,0,0,0,0,0,0,0,0,0,0,3.0191,3.0119,3.0284,3.029,3.0291,3.0364,3.0366,3.0367,3.0356,3.0354,3.0352,3.035,3.0428,3.0433,3.0438,3.051,0,0,3.0454,3.0456,0,0,0,0,0,0,0,0,3.0187,3.0197,3.0288,3.0289,3.0291,3.0348,3.0335,3.0415,3.0356,3.0331,3.0351,3.0349,3.0405,3.0411,3.0431,3.0513,3.0517,3.0454,3.0457,3.0459,3.0461,0,0,0,0,0,0,0,3.0181,3.0194,3.0316,3.0289,3.0291,3.0287,3.0295,3.035,3.0378,3.0333,3.0333,3.0342,3.0405,3.0426,3.0433,3.0518,3.0454,3.0458,3.0462,3.0463,3.066,3.0662,0,0,0,0,0,0,3.0175,3.0189,3.0313,3.0318,3.0233,3.0291,3.0301,3.0332,3.0377,3.0383,3.0344,3.0342,3.0418,3.0427,3.0435,3.0521,3.0459,3.0464,3.0467,3.0658,3.0661,3.0663,0,0,0,0,0,0,3.0171,3.0186,3.031,3.0254,3.0269,3.0297,3.0331,3.0334,3.0355,3.0386,3.039,3.0361,3.0417,3.0428,3.0491,3.0523,3.0466,3.0471,3.0655,3.0659,3.0662,3.0692,0,0,0,0,0,0,3.0167,3.0185,3.0214,3.0254,3.0272,3.0366,3.0333,3.0337,3.0365,3.0362,3.0403,3.0407,3.0416,3.0483,3.0496,3.0529,3.0475,3.0653,3.0657,3.0661,3.0689,3.0696,3.0703,0,0,0,0,0,3.0161,3.0219,3.0215,3.023,3.0309,3.0368,3.0377,3.0388,3.0367,3.0395,3.0414,3.0406,3.0518,3.049,3.0504,3.0539,3.0651,3.0656,3.0661,3.0685,3.0695,3.0703,0,0,0,0,0,0,3.018,3.0224,3.0221,3.0294,3.0327,3.0366,3.0402,3.0398,3.0437,3.0433,3.0443,3.0452,3.0515,3.0533,3.0502,3.0609,3.0581,3.0589,3.0595,3.0604,3.0611,3.0605,3.0479,0,0,0,0,0,3.0193,3.0239,3.0274,3.0335,3.0352,3.0374,3.04,3.0405,3.0439,3.0453,3.0477,3.0509,3.0551,3.0579,3.062,3.0691,3.0699,3.0722,3.0729,3.0735,3.0741,3.0779,3.0789,3.0679,3.0679,3.0679,0,0,3.0221,3.025,3.0278,3.034,3.0366,3.0411,3.0386,3.0435,3.0468,3.046,3.0521,3.0539,3.0576,3.0643,3.0673,3.066,3.0773,3.0741,3.0746,3.0749,3.0785,3.0795,3.0804,3.0683,3.0682,3.0682,0,0,3.0293,3.0321,3.0374,3.0401,3.0441,3.0455,3.0467,3.0506,3.0518,3.0579,3.0573,3.0612,3.0685,3.0711,3.0734,3.0814,3.0807,3.0826,3.0864,3.09,3.0908,3.0916,3.0943,3.0953,3.0833,3.0833,3.0833,0,3.0321,3.0391,3.0401,3.0451,3.0477,3.0473,3.0525,3.055,3.0601,3.0619,3.0604,3.0694,3.0718,3.079,3.081,3.0829,3.0842,3.0822,3.0907,3.0914,3.0922,3.0947,3.0958,3.0835,3.0835,3.0835,3.0834,0,3.0422,3.047,3.0508,3.0558,3.0589,3.064,3.0657,3.0686,3.0688,3.0703,3.0764,3.0793,3.0838,3.0856,3.0858,3.0927,3.0918,3.0904,3.0876,3.0934,3.0958,3.0968,3.0838,3.0837,3.0837,3.0836,0,0,3.051,3.0565,3.0578,3.06,3.0643,3.068,3.0729,3.0775,3.0799,3.0834,3.0874,3.0936,3.0923,3.0949,3.0954,3.0985,3.1045,3.0968,3.0969,3.098,3.1121,3.113,3.1142,3.1041,3.1043,3.1044,3.1118,0,3.0586,3.0675,3.0686,3.0764,3.0807,3.0802,3.0845,3.0875,3.089,3.0928,3.0943,3.0986,3.0967,3.0982,3.1014,3.1031,3.1073,3.1026,3.1077,3.1079,3.1067,3.1155,3.1165,3.1233,3.1127,3.1129,3.113,0,3.0687,3.0725,3.0808,3.0843,3.0862,3.09,3.0942,3.0978,3.1011,3.102,3.1048,3.1048,3.1097,3.1067,3.1134,3.1101,3.1123,3.1134,3.1137,3.1141,3.1107,3.1161,3.1255,3.1265,3.1146,3.1144,3.1143,0,3.074,3.0812,3.0871,3.089,3.0933,3.096,3.0979,3.1011,3.1037,3.1072,3.1089,3.1129,3.1151,3.1182,3.1192,3.117,3.1258,3.1229,3.1265,3.1264,3.1283,3.1282,3.1382,3.1298,3.1298,3.1298,3.1298,0,3.0823,3.0874,3.0896,3.0932,3.0987,3.0998,3.1052,3.107,3.1098,3.1135,3.1133,3.1169,3.1181,3.1218,3.1226,3.1279,3.1289,3.1296,3.1297,3.1296,3.1295,3.1309,3.1304,3.1301,3.13,3.13,3.1299,0,3.0893,3.091,3.0973,3.1009,3.1019,3.1058,3.1088,3.1122,3.1135,3.1183,3.1195,3.1216,3.1259,3.1273,3.1325,3.133,3.1392,3.1389,3.1381,3.1381,3.1415,3.1411,3.1527,3.1542,3.145,3.1451,3.1451,0,3.0945,3.0984,3.1023,3.1049,3.1069,3.111,3.1137,3.1148,3.1175,3.1215,3.1243,3.1286,3.1321,3.1389,3.1409,3.1448,3.1445,3.1483,3.1451,3.1448,3.1444,3.1442,3.1445,3.1489,3.149,3.1491,3.1492,0,3.1034,3.104,3.1078,3.112,3.1151,3.1184,3.1216,3.1237,3.1252,3.1282,3.1327,3.1354,3.1406,3.1448,3.1488,3.1505,3.15,3.1502,3.1512,3.151,3.1503,3.1506,3.1396,3.1499,3.1498,3.1497,3.1497,3.1497,3.1095,3.1129,3.1161,3.1204,3.1229,3.1258,3.1291,3.1309,3.1347,3.1391,3.1395,3.1442,3.1472,3.1525,3.1544,3.158,3.1569,3.1584,3.1588,3.1591,3.1593,3.1498,3.1588,3.1588,3.1587,3.1587,3.1587,0,3.1183,3.1203,3.1243,3.1287,3.132,3.1313,3.1347,3.1375,3.1417,3.1446,3.148,3.153,3.157,3.1592,3.1632,3.1656,3.1655,3.1666,3.1664,3.1668,3.1602,3.1588,3.1667,3.1667,3.1667,3.1667,3.1667,3.1666,3.1232,3.1288,3.1298,3.1365,3.1385,3.1432,3.1452,3.1478,3.1501,3.1558,3.1591,3.1605,3.1631,3.1672,3.1708,3.1713,3.1727,3.174,3.1743,3.1681,3.1673,3.1665,3.1653,3.1743,3.1743,3.1807,3.1807,3.1808]}]]